TAM3412 SBEG-SBRF

Flight info

Callsign TAM3412
Flight time N/A
Altitude FL350
Route UTNIB TERET GELVU ELABI KUBTA OROVO VURIM UPOMO OPLOG SILIG EKUPO OGDUP MUGOM TELEG PAMUB ILSOL ILBEM UDULA KABOP TENAM NIKNO MORVU OBDOL ENTEB RF011 RF008
Aircraft A320/M-VGDW/C

Departure

Time 2026-04-16 14:07
Airport Eduardo Gomes International Airport (SBEG)

Arrival

Time N/A
Airport Recife/Guararapes - Gilberto Freyre International Airport (SBRF)
Time Latitude Longitude Altitude Speed Heading
2026-04-16 14:06 -3.03861 -60.03796 275 ft 0 kts 270°
2026-04-16 14:06 -3.03861 -60.03801 275 ft 6 kts 270°
2026-04-16 14:06 -3.03861 -60.04054 275 ft 69 kts 270°
2026-04-16 14:06 -3.03865 -60.04734 276 ft 125 kts 270°
2026-04-16 14:07 -3.03871 -60.05751 378 ft 155 kts 269°
2026-04-16 14:07 -3.03911 -60.06743 1169 ft 133 kts 265°
2026-04-16 14:07 -3.04043 -60.07681 1535 ft 152 kts 259°
2026-04-16 14:07 -3.04315 -60.08889 1403 ft 203 kts 255°
2026-04-16 14:08 -3.05025 -60.10246 713 ft 244 kts 229°
2026-04-16 14:08 -3.06439 -60.11002 955 ft 225 kts 193°
2026-04-16 14:08 -3.08038 -60.10870 1354 ft 241 kts 162°
2026-04-16 14:08 -3.09210 -60.10142 1674 ft 250 kts 139°
2026-04-16 14:09 -3.10139 -60.08653 2060 ft 262 kts 112°
2026-04-16 14:09 -3.10360 -60.06817 2507 ft 270 kts 90°
2026-04-16 14:09 -3.10227 -60.04928 2921 ft 276 kts 83°
2026-04-16 14:09 -3.09978 -60.03005 3333 ft 282 kts 81°
2026-04-16 14:10 -3.09687 -60.01041 3730 ft 287 kts 80°
2026-04-16 14:10 -3.09387 -59.99071 4128 ft 289 kts 80°
2026-04-16 14:10 -3.09086 -59.97083 4529 ft 290 kts 81°
2026-04-16 14:10 -3.08833 -59.95076 4931 ft 292 kts 83°
2026-04-16 14:11 -3.08686 -59.93050 5333 ft 294 kts 86°
2026-04-16 14:11 -3.08656 -59.90997 5736 ft 296 kts 89°
2026-04-16 14:11 -3.08731 -59.88946 6138 ft 298 kts 92°
2026-04-16 14:11 -3.08894 -59.86878 6539 ft 300 kts 94°
2026-04-16 14:12 -3.09126 -59.84802 6942 ft 301 kts 96°
2026-04-16 14:12 -3.09413 -59.82719 7343 ft 303 kts 97°
2026-04-16 14:12 -3.09740 -59.80640 7742 ft 305 kts 98°
2026-04-16 14:12 -3.10099 -59.78552 8141 ft 306 kts 99°
2026-04-16 14:13 -3.10481 -59.76460 8540 ft 308 kts 99°
2026-04-16 14:13 -3.10886 -59.74344 8943 ft 310 kts 100°
2026-04-16 14:13 -3.11304 -59.72227 9343 ft 312 kts 100°
2026-04-16 14:13 -3.11733 -59.70100 9782 ft 313 kts 101°
2026-04-16 14:14 -3.12171 -59.67966 10219 ft 315 kts 101°
2026-04-16 14:14 -3.12617 -59.65819 10644 ft 317 kts 101°
2026-04-16 14:14 -3.13070 -59.63658 11069 ft 319 kts 101°
2026-04-16 14:14 -3.13530 -59.61482 11494 ft 321 kts 101°
2026-04-16 14:15 -3.13995 -59.59289 11920 ft 323 kts 101°
2026-04-16 14:15 -3.14464 -59.57085 12346 ft 325 kts 102°
2026-04-16 14:15 -3.14937 -59.54868 12771 ft 328 kts 102°
2026-04-16 14:15 -3.15413 -59.52643 13195 ft 330 kts 102°
2026-04-16 14:16 -3.15896 -59.50388 13622 ft 332 kts 102°
2026-04-16 14:16 -3.16381 -59.48127 14047 ft 334 kts 102°
2026-04-16 14:16 -3.16868 -59.45855 14471 ft 337 kts 102°
2026-04-16 14:16 -3.17361 -59.43558 14897 ft 339 kts 102°
2026-04-16 14:17 -3.17857 -59.41250 15322 ft 342 kts 102°
2026-04-16 14:17 -3.18359 -59.38915 15749 ft 344 kts 102°
2026-04-16 14:17 -3.18862 -59.36572 16174 ft 346 kts 102°
2026-04-16 14:17 -3.19369 -59.34214 16599 ft 349 kts 102°
2026-04-16 14:18 -3.19880 -59.31837 17025 ft 351 kts 102°
2026-04-16 14:18 -3.20393 -59.29449 17450 ft 354 kts 102°
2026-04-16 14:18 -3.20912 -59.27037 17876 ft 356 kts 103°
2026-04-16 14:18 -3.21433 -59.24614 18301 ft 358 kts 103°
2026-04-16 14:19 -3.21956 -59.22178 18725 ft 361 kts 103°
2026-04-16 14:19 -3.22484 -59.19718 19151 ft 363 kts 103°
2026-04-16 14:19 -3.23015 -59.17251 19575 ft 366 kts 103°
2026-04-16 14:19 -3.23550 -59.14760 20001 ft 368 kts 103°
2026-04-16 14:20 -3.24089 -59.12248 20426 ft 370 kts 103°
2026-04-16 14:20 -3.24631 -59.09727 20851 ft 372 kts 103°
2026-04-16 14:20 -3.25172 -59.07205 21274 ft 374 kts 103°
2026-04-16 14:20 -3.25719 -59.04661 21699 ft 375 kts 103°
2026-04-16 14:21 -3.26266 -59.02110 22123 ft 375 kts 103°
2026-04-16 14:21 -3.26813 -58.99563 22547 ft 375 kts 102°
2026-04-16 14:21 -3.27358 -58.97020 22970 ft 375 kts 102°
2026-04-16 14:21 -3.27904 -58.94476 23393 ft 374 kts 102°
2026-04-16 14:22 -3.28449 -58.91936 23817 ft 373 kts 102°
2026-04-16 14:22 -3.28991 -58.89406 24240 ft 372 kts 102°
2026-04-16 14:22 -3.29532 -58.86886 24663 ft 369 kts 102°
2026-04-16 14:22 -3.30071 -58.84369 24856 ft 375 kts 102°
2026-04-16 14:23 -3.30623 -58.81797 24943 ft 383 kts 102°
2026-04-16 14:23 -3.31187 -58.79165 24964 ft 392 kts 102°
2026-04-16 14:23 -3.31765 -58.76472 24965 ft 401 kts 102°
2026-04-16 14:23 -3.32354 -58.73722 24963 ft 407 kts 102°
2026-04-16 14:24 -3.32949 -58.70949 24962 ft 410 kts 102°
2026-04-16 14:24 -3.33546 -58.68163 24962 ft 413 kts 102°
2026-04-16 14:24 -3.34149 -58.65346 24961 ft 414 kts 102°
2026-04-16 14:24 -3.34753 -58.62527 24961 ft 415 kts 102°
2026-04-16 14:25 -3.35355 -58.59714 24960 ft 416 kts 102°
2026-04-16 14:25 -3.35962 -58.56881 24959 ft 416 kts 102°
2026-04-16 14:25 -3.36567 -58.54054 24959 ft 417 kts 102°
2026-04-16 14:25 -3.37172 -58.51229 24959 ft 417 kts 102°
2026-04-16 14:26 -3.37776 -58.48403 24959 ft 417 kts 102°
2026-04-16 14:26 -3.38383 -58.45566 24959 ft 417 kts 102°
2026-04-16 14:26 -3.38989 -58.42737 24959 ft 417 kts 102°
2026-04-16 14:26 -3.39595 -58.39903 24959 ft 417 kts 102°
2026-04-16 14:27 -3.40199 -58.37076 24958 ft 417 kts 102°
2026-04-16 14:27 -3.40805 -58.34246 24958 ft 417 kts 102°
2026-04-16 14:27 -3.41412 -58.31407 24957 ft 417 kts 102°
2026-04-16 14:27 -3.42015 -58.28586 24957 ft 417 kts 102°
2026-04-16 14:28 -3.42622 -58.25747 24956 ft 417 kts 102°
2026-04-16 14:28 -3.43226 -58.22919 24957 ft 417 kts 102°
2026-04-16 14:28 -3.43829 -58.20095 24957 ft 417 kts 102°
2026-04-16 14:28 -3.44434 -58.17265 24957 ft 417 kts 102°
2026-04-16 14:29 -3.45039 -58.14434 24957 ft 417 kts 102°
2026-04-16 14:29 -3.45645 -58.11598 24957 ft 417 kts 102°
2026-04-16 14:29 -3.46248 -58.08772 24955 ft 417 kts 102°
2026-04-16 14:29 -3.46851 -58.05946 24955 ft 417 kts 102°
2026-04-16 14:30 -3.47457 -58.03110 24954 ft 417 kts 102°
2026-04-16 14:30 -3.48059 -58.00290 24954 ft 416 kts 102°
2026-04-16 14:30 -3.48664 -57.97456 24954 ft 416 kts 102°
2026-04-16 14:30 -3.49267 -57.94631 24955 ft 416 kts 102°
2026-04-16 14:31 -3.49869 -57.91806 24955 ft 416 kts 102°
2026-04-16 14:31 -3.50475 -57.88969 24955 ft 416 kts 102°
2026-04-16 14:31 -3.51077 -57.86147 24953 ft 416 kts 102°
2026-04-16 14:31 -3.51679 -57.83322 24952 ft 416 kts 102°
2026-04-16 14:32 -3.52283 -57.80488 24951 ft 416 kts 102°
2026-04-16 14:32 -3.52884 -57.77669 24950 ft 416 kts 102°
2026-04-16 14:32 -3.53487 -57.74841 24950 ft 416 kts 102°
2026-04-16 14:32 -3.54090 -57.72009 24951 ft 416 kts 102°
2026-04-16 14:33 -3.54692 -57.69187 24950 ft 416 kts 102°
2026-04-16 14:33 -3.55295 -57.66356 24950 ft 416 kts 102°
2026-04-16 14:33 -3.55897 -57.63529 24949 ft 416 kts 102°
2026-04-16 14:33 -3.56498 -57.60707 24948 ft 416 kts 102°
2026-04-16 14:34 -3.57098 -57.57890 24947 ft 416 kts 102°
2026-04-16 14:34 -3.57701 -57.55058 24947 ft 416 kts 102°
2026-04-16 14:34 -3.58300 -57.52242 24947 ft 416 kts 102°
2026-04-16 14:34 -3.58903 -57.49411 24947 ft 416 kts 102°
2026-04-16 14:35 -3.59502 -57.46595 24947 ft 416 kts 102°
2026-04-16 14:35 -3.60103 -57.43767 24947 ft 416 kts 102°
2026-04-16 14:35 -3.60705 -57.40940 24946 ft 416 kts 102°
2026-04-16 14:35 -3.61303 -57.38124 24945 ft 416 kts 102°
2026-04-16 14:36 -3.61903 -57.35298 24945 ft 415 kts 102°
2026-04-16 14:36 -3.62492 -57.32472 24945 ft 415 kts 102°
2026-04-16 14:36 -3.63069 -57.29640 24945 ft 415 kts 102°
2026-04-16 14:36 -3.63637 -57.26821 24945 ft 415 kts 102°
2026-04-16 14:37 -3.64203 -57.23990 24945 ft 415 kts 102°
2026-04-16 14:37 -3.64766 -57.21159 24945 ft 415 kts 102°
2026-04-16 14:37 -3.65328 -57.18325 24945 ft 415 kts 102°
2026-04-16 14:37 -3.65890 -57.15491 24943 ft 415 kts 102°
2026-04-16 14:38 -3.66448 -57.12672 24943 ft 415 kts 102°
2026-04-16 14:38 -3.67007 -57.09842 24942 ft 415 kts 102°
2026-04-16 14:38 -3.67567 -57.07012 24942 ft 415 kts 102°
2026-04-16 14:38 -3.68127 -57.04180 24943 ft 415 kts 102°
2026-04-16 14:39 -3.68687 -57.01343 24943 ft 415 kts 102°
2026-04-16 14:39 -3.69247 -56.98513 24943 ft 415 kts 102°
2026-04-16 14:39 -3.69806 -56.95685 24942 ft 415 kts 102°
2026-04-16 14:39 -3.70365 -56.92852 24940 ft 415 kts 102°
2026-04-16 14:40 -3.70922 -56.90034 24939 ft 415 kts 102°
2026-04-16 14:40 -3.71481 -56.87203 24939 ft 415 kts 102°
2026-04-16 14:40 -3.72041 -56.84369 24939 ft 415 kts 102°
2026-04-16 14:40 -3.72600 -56.81539 24939 ft 415 kts 102°
2026-04-16 14:41 -3.73156 -56.78721 24940 ft 415 kts 102°
2026-04-16 14:41 -3.73716 -56.75885 24938 ft 415 kts 102°
2026-04-16 14:41 -3.74274 -56.73054 24936 ft 415 kts 102°
2026-04-16 14:41 -3.74831 -56.70234 24935 ft 415 kts 102°
2026-04-16 14:42 -3.75388 -56.67408 24935 ft 414 kts 102°
2026-04-16 14:42 -3.75946 -56.64583 24935 ft 414 kts 102°
2026-04-16 14:42 -3.76503 -56.61756 24935 ft 414 kts 102°
2026-04-16 14:42 -3.77059 -56.58936 24935 ft 414 kts 102°
2026-04-16 14:43 -3.77617 -56.56111 24935 ft 414 kts 102°
2026-04-16 14:43 -3.78173 -56.53290 24935 ft 414 kts 102°
2026-04-16 14:43 -3.78731 -56.50457 24946 ft 414 kts 102°
2026-04-16 14:43 -3.79285 -56.47646 25164 ft 412 kts 102°
2026-04-16 14:44 -3.79836 -56.44847 25508 ft 413 kts 102°
2026-04-16 14:44 -3.80393 -56.42022 25878 ft 414 kts 102°
2026-04-16 14:44 -3.80950 -56.39193 26252 ft 415 kts 102°
2026-04-16 14:44 -3.81507 -56.36366 26625 ft 416 kts 102°
2026-04-16 14:45 -3.82065 -56.33532 26999 ft 416 kts 102°
2026-04-16 14:45 -3.82623 -56.30698 27373 ft 416 kts 102°
2026-04-16 14:45 -3.83181 -56.27863 27747 ft 415 kts 102°
2026-04-16 14:45 -3.83738 -56.25033 28120 ft 414 kts 102°
2026-04-16 14:46 -3.84291 -56.22220 28493 ft 413 kts 102°
2026-04-16 14:46 -3.84845 -56.19406 28867 ft 411 kts 102°
2026-04-16 14:46 -3.85395 -56.16606 29240 ft 409 kts 102°
2026-04-16 14:46 -3.85941 -56.13829 29612 ft 407 kts 102°
2026-04-16 14:47 -3.86485 -56.11062 29986 ft 404 kts 102°
2026-04-16 14:47 -3.87024 -56.08320 30358 ft 400 kts 102°
2026-04-16 14:47 -3.87555 -56.05615 30729 ft 396 kts 102°
2026-04-16 14:47 -3.88083 -56.02928 31101 ft 392 kts 102°
2026-04-16 14:48 -3.88606 -56.00263 31474 ft 387 kts 102°
2026-04-16 14:48 -3.89118 -55.97656 31844 ft 381 kts 102°
2026-04-16 14:48 -3.89623 -55.95079 32215 ft 374 kts 102°
2026-04-16 14:48 -3.90121 -55.92545 32585 ft 367 kts 102°
2026-04-16 14:49 -3.90607 -55.90068 32955 ft 359 kts 102°
2026-04-16 14:49 -3.91080 -55.87655 33322 ft 351 kts 102°
2026-04-16 14:49 -3.91543 -55.85292 33690 ft 341 kts 102°
2026-04-16 14:49 -3.91990 -55.83007 34056 ft 330 kts 102°
2026-04-16 14:50 -3.92424 -55.80794 34420 ft 318 kts 102°
2026-04-16 14:50 -3.92838 -55.78675 34735 ft 308 kts 102°
2026-04-16 14:50 -3.93247 -55.76592 34849 ft 303 kts 102°
2026-04-16 14:50 -3.93650 -55.74539 34915 ft 300 kts 102°
2026-04-16 14:51 -3.94051 -55.72494 34932 ft 299 kts 102°
2026-04-16 14:51 -3.94451 -55.70460 34934 ft 298 kts 102°
2026-04-16 14:51 -3.94849 -55.68431 34934 ft 297 kts 102°
2026-04-16 14:51 -3.95245 -55.66416 34933 ft 296 kts 102°
2026-04-16 14:53 -3.97976 -55.52483 34933 ft 287 kts 102°
2026-04-16 14:53 -3.98359 -55.50526 34933 ft 286 kts 102°
2026-04-16 14:54 -3.98739 -55.48584 34933 ft 284 kts 102°
2026-04-16 14:54 -3.99117 -55.46652 34933 ft 282 kts 102°
2026-04-16 14:54 -3.99493 -55.44733 34933 ft 280 kts 102°
2026-04-16 14:54 -3.99866 -55.42827 34932 ft 278 kts 102°
2026-04-16 14:55 -4.00236 -55.40936 34932 ft 276 kts 102°
2026-04-16 14:55 -4.00602 -55.39061 34932 ft 274 kts 102°
2026-04-16 14:55 -4.00964 -55.37212 34932 ft 271 kts 102°
2026-04-16 14:55 -4.01325 -55.35371 34931 ft 268 kts 102°
2026-04-16 14:56 -4.01682 -55.33555 34931 ft 265 kts 102°
2026-04-16 14:56 -4.02034 -55.31767 34930 ft 261 kts 102°
2026-04-16 14:56 -4.02382 -55.30002 34930 ft 257 kts 102°
2026-04-16 14:56 -4.02725 -55.28263 34928 ft 252 kts 102°
2026-04-16 14:57 -4.03059 -55.26567 34924 ft 246 kts 103°
2026-04-16 14:57 -4.03379 -55.24940 34725 ft 218 kts 103°
2026-04-16 14:57 -4.03602 -55.23745 31309 ft 143 kts 101°
2026-04-16 14:57 -4.03736 -55.22849 25591 ft 133 kts 98°
2026-04-16 14:58 -4.03867 -55.21132 18594 ft 365 kts 94°
2026-04-16 14:58 -4.03723 -55.14262 18170 ft 469 kts 95°
2026-04-16 14:58 -4.04170 -55.11656 22405 ft 259 kts 108°
2026-04-16 14:59 -4.04660 -55.10456 27067 ft 127 kts 119°
2026-04-16 14:59 -4.04988 -55.09821 27423 ft 91 kts 131°
2026-04-16 14:59 -4.05327 -55.09282 23058 ft 106 kts 133°
2026-04-16 14:59 -4.06129 -55.08513 17915 ft 274 kts 140°
2026-04-16 15:00 -4.07965 -55.06751 16087 ft 396 kts 127°
2026-04-16 15:00 -4.09337 -55.04355 16686 ft 404 kts 115°
2026-04-16 15:00 -4.10474 -55.01689 16222 ft 436 kts 112°
2026-04-16 15:00 -4.11756 -54.98701 14846 ft 483 kts 108°
2026-04-16 15:01 -4.12180 -54.96107 20178 ft 265 kts 92°
2026-04-16 15:01 -4.12132 -54.94369 24016 ft 243 kts 89°
2026-04-16 15:01 -4.11951 -54.92681 24268 ft 254 kts 84°
2026-04-16 15:01 -4.11727 -54.90828 23819 ft 284 kts 86°
2026-04-16 15:02 -4.11630 -54.88744 23178 ft 319 kts 91°
2026-04-16 15:02 -4.11700 -54.86411 22477 ft 350 kts 95°
2026-04-16 15:02 -4.11917 -54.83914 21763 ft 370 kts 97°
2026-04-16 15:02 -4.12244 -54.81313 21065 ft 382 kts 99°
2026-04-16 15:03 -4.12643 -54.78712 20925 ft 375 kts 100°
2026-04-16 15:03 -4.13075 -54.76162 20926 ft 370 kts 101°
2026-04-16 15:03 -4.13534 -54.73621 20932 ft 372 kts 101°
2026-04-16 15:03 -4.14010 -54.71079 20965 ft 374 kts 102°
2026-04-16 15:04 -4.14503 -54.68516 21168 ft 375 kts 102°
2026-04-16 15:04 -4.15001 -54.65958 21412 ft 378 kts 102°
2026-04-16 15:04 -4.15509 -54.63368 21662 ft 380 kts 102°
2026-04-16 15:04 -4.16022 -54.60764 21913 ft 383 kts 102°
2026-04-16 15:05 -4.16537 -54.58153 22162 ft 385 kts 102°
2026-04-16 15:05 -4.17057 -54.55518 22413 ft 387 kts 102°
2026-04-16 15:05 -4.17578 -54.52871 22663 ft 389 kts 102°
2026-04-16 15:05 -4.18098 -54.50209 22914 ft 391 kts 102°
2026-04-16 15:06 -4.18615 -54.47543 23163 ft 393 kts 102°
2026-04-16 15:06 -4.19135 -54.44858 23413 ft 395 kts 102°
2026-04-16 15:06 -4.19656 -54.42158 23663 ft 396 kts 102°
2026-04-16 15:06 -4.20178 -54.39445 23914 ft 398 kts 102°
2026-04-16 15:07 -4.20703 -54.36717 24164 ft 400 kts 102°
2026-04-16 15:07 -4.21229 -54.33985 24414 ft 402 kts 102°
2026-04-16 15:07 -4.21757 -54.31234 24663 ft 404 kts 102°
2026-04-16 15:07 -4.22290 -54.28464 24825 ft 407 kts 102°
2026-04-16 15:08 -4.22824 -54.25683 24915 ft 409 kts 102°
2026-04-16 15:08 -4.23361 -54.22884 24937 ft 411 kts 102°
2026-04-16 15:08 -4.23901 -54.20073 24938 ft 412 kts 102°
2026-04-16 15:08 -4.24441 -54.17261 24936 ft 412 kts 102°
2026-04-16 15:09 -4.24974 -54.14477 24935 ft 412 kts 102°
2026-04-16 15:09 -4.25519 -54.11639 24935 ft 412 kts 102°
2026-04-16 15:09 -4.26056 -54.08833 24935 ft 412 kts 102°
2026-04-16 15:09 -4.26598 -54.06006 24936 ft 415 kts 102°
2026-04-16 15:10 -4.27143 -54.03167 24936 ft 418 kts 102°
2026-04-16 15:10 -4.27691 -54.00310 24997 ft 418 kts 102°
2026-04-16 15:10 -4.28238 -53.97454 25253 ft 418 kts 102°
2026-04-16 15:10 -4.28786 -53.94594 25566 ft 420 kts 102°
2026-04-16 15:11 -4.29334 -53.91730 25887 ft 423 kts 102°
2026-04-16 15:11 -4.29889 -53.88834 26212 ft 425 kts 102°
2026-04-16 15:11 -4.30448 -53.85916 26537 ft 428 kts 102°
2026-04-16 15:11 -4.31009 -53.82984 26863 ft 431 kts 102°
2026-04-16 15:12 -4.31573 -53.80038 27187 ft 434 kts 102°
2026-04-16 15:12 -4.32142 -53.77062 27513 ft 436 kts 102°
2026-04-16 15:12 -4.32712 -53.74083 27837 ft 439 kts 102°
2026-04-16 15:12 -4.33286 -53.71082 28162 ft 441 kts 102°
2026-04-16 15:13 -4.33863 -53.68060 28488 ft 442 kts 102°
2026-04-16 15:13 -4.34440 -53.65036 28748 ft 446 kts 102°
2026-04-16 15:13 -4.35024 -53.61979 28873 ft 450 kts 102°
2026-04-16 15:14 -4.36205 -53.55797 28939 ft 455 kts 102°
2026-04-16 15:14 -4.37392 -53.49576 28936 ft 456 kts 102°
2026-04-16 15:15 -4.38584 -53.43326 28936 ft 457 kts 102°
2026-04-16 15:15 -4.39773 -53.37085 28936 ft 457 kts 102°
2026-04-16 15:16 -4.40962 -53.30836 28936 ft 457 kts 102°
2026-04-16 15:16 -4.42149 -53.24601 28936 ft 457 kts 102°
2026-04-16 15:17 -4.43338 -53.18348 28936 ft 457 kts 102°
2026-04-16 15:17 -4.44525 -53.12102 28936 ft 457 kts 102°
2026-04-16 15:18 -4.45714 -53.05841 28936 ft 457 kts 102°
2026-04-16 15:18 -4.46900 -52.99594 28936 ft 457 kts 102°
2026-04-16 15:19 -4.48084 -52.93353 28936 ft 457 kts 102°
2026-04-16 15:19 -4.49272 -52.87093 28931 ft 458 kts 102°
2026-04-16 15:20 -4.50454 -52.80852 28922 ft 457 kts 102°
2026-04-16 15:20 -4.51642 -52.74599 28921 ft 457 kts 102°
2026-04-16 15:21 -4.52833 -52.68349 28921 ft 457 kts 102°
2026-04-16 15:21 -4.54024 -52.62096 28921 ft 457 kts 102°
2026-04-16 15:22 -4.55213 -52.55853 28921 ft 457 kts 102°
2026-04-16 15:22 -4.56402 -52.49606 28921 ft 457 kts 101°
2026-04-16 15:23 -4.57589 -52.43369 29201 ft 454 kts 101°
2026-04-16 15:23 -4.58179 -52.40268 29510 ft 455 kts 101°
2026-04-16 15:23 -4.58771 -52.37154 29833 ft 455 kts 101°
2026-04-16 15:23 -4.59361 -52.34046 30156 ft 456 kts 101°
2026-04-16 15:24 -4.59952 -52.30930 30480 ft 456 kts 101°
2026-04-16 15:24 -4.60543 -52.27818 30804 ft 455 kts 101°
2026-04-16 15:24 -4.61132 -52.24714 31128 ft 455 kts 101°
2026-04-16 15:24 -4.61722 -52.21601 31453 ft 454 kts 101°
2026-04-16 15:25 -4.62308 -52.18509 31776 ft 453 kts 101°
2026-04-16 15:25 -4.62894 -52.15417 32100 ft 451 kts 101°
2026-04-16 15:25 -4.63476 -52.12346 32422 ft 449 kts 101°
2026-04-16 15:25 -4.64057 -52.09283 32717 ft 449 kts 101°
2026-04-16 15:26 -4.64640 -52.06201 32855 ft 451 kts 101°
2026-04-16 15:26 -4.65817 -51.99988 32947 ft 460 kts 101°
2026-04-16 15:27 -4.67028 -51.93619 32947 ft 471 kts 101°
2026-04-16 15:27 -4.68270 -51.87114 32946 ft 480 kts 101°
2026-04-16 15:28 -4.69528 -51.80538 32945 ft 484 kts 101°
2026-04-16 15:28 -4.70794 -51.73916 32947 ft 485 kts 101°
2026-04-16 15:29 -4.72060 -51.67286 32947 ft 486 kts 101°
2026-04-16 15:29 -4.73328 -51.60638 32947 ft 486 kts 101°
2026-04-16 15:30 -4.74591 -51.54016 33267 ft 483 kts 101°
2026-04-16 15:30 -4.75218 -51.50722 33581 ft 480 kts 102°
2026-04-16 15:30 -4.75839 -51.47460 33901 ft 476 kts 102°
2026-04-16 15:30 -4.76457 -51.44215 34224 ft 473 kts 102°
2026-04-16 15:31 -4.77069 -51.40995 34547 ft 469 kts 102°
2026-04-16 15:31 -4.77678 -51.37793 34780 ft 468 kts 102°
2026-04-16 15:31 -4.78286 -51.34601 34895 ft 469 kts 102°
2026-04-16 15:32 -4.79514 -51.28149 34954 ft 475 kts 102°
2026-04-16 15:32 -4.80757 -51.21616 34954 ft 481 kts 102°
2026-04-16 15:33 -4.82016 -51.14995 34953 ft 487 kts 102°
2026-04-16 15:33 -4.83281 -51.08313 34954 ft 491 kts 102°
2026-04-16 15:34 -4.84549 -51.01584 34955 ft 494 kts 102°
2026-04-16 15:34 -4.85820 -50.94823 34955 ft 496 kts 102°
2026-04-16 15:35 -4.87098 -50.88019 34955 ft 498 kts 102°
2026-04-16 15:35 -4.88376 -50.81205 34956 ft 499 kts 102°
2026-04-16 15:36 -4.89655 -50.74375 34957 ft 500 kts 102°
2026-04-16 15:36 -4.90936 -50.67538 34957 ft 500 kts 102°
2026-04-16 15:37 -4.92217 -50.60693 34958 ft 501 kts 102°
2026-04-16 15:37 -4.93497 -50.53846 34959 ft 500 kts 102°
2026-04-16 15:38 -4.94776 -50.46997 34959 ft 500 kts 102°
2026-04-16 15:38 -4.96054 -50.40161 34959 ft 500 kts 102°
2026-04-16 15:39 -4.96911 -50.35598 34960 ft 500 kts 102°